Time,TemperatureF,DewpointF,PressureIn,WindDirection,WindDirectionDegrees,WindSpeedMPH,WindSpeedGustMPH,Humidity,HourlyPrecipIn,Conditions,Clouds,dailyrainin,SoftwareType,DateUTC
2013-09-14 00:01:00,54.9,53.0,29.36,WSW,247,0.0,1.0,92,0.00,,,0.00,Rainwise IP-100,2013-09-14 04:01:00,
2013-09-14 00:02:00,54.8,53.0,29.36,WSW,247,0.0,1.0,92,0.00,,,0.00,Rainwise IP-100,2013-09-14 04:02:00,
2013-09-14 00:03:00,54.8,53.0,29.36,WSW,247,0.0,1.0,92,0.00,,,0.00,Rainwise IP-100,2013-09-14 04:03:00,
2013-09-14 00:04:00,54.8,53.0,29.36,WSW,247,0.0,0.0,92,0.00,,,0.00,Rainwise IP-100,2013-09-14 04:04:00,
2013-09-14 00:09:00,54.8,53.0,29.36,WSW,247,0.0,1.0,92,0.00,,,0.00,Rainwise IP-100,2013-09-14 04:09:00,
2013-09-14 00:14:00,54.9,53.0,29.36,WSW,247,0.0,1.0,92,0.00,,,0.00,Rainwise IP-100,2013-09-14 04:14:00,
2013-09-14 00:19:00,54.9,53.0,29.36,WSW,247,0.0,0.0,92,0.00,,,0.00,Rainwise IP-100,2013-09-14 04:19:00,
2013-09-14 00:24:00,55.0,53.0,29.36,NE,45,0.0,1.0,92,0.00,,,0.00,Rainwise IP-100,2013-09-14 04:24:00,
2013-09-14 00:29:00,55.1,53.0,29.36,NNE,22,0.0,4.0,92,0.00,,,0.00,Rainwise IP-100,2013-09-14 04:29:00,
2013-09-14 00:34:00,55.3,53.0,29.37,North,360,0.0,0.0,91,0.00,,,0.00,Rainwise IP-100,2013-09-14 04:34:00,
2013-09-14 00:39:00,55.3,53.0,29.37,NW,315,0.0,0.0,91,0.00,,,0.00,Rainwise IP-100,2013-09-14 04:39:00,
2013-09-14 00:44:00,55.3,53.0,29.37,NW,315,0.0,0.0,91,0.00,,,0.00,Rainwise IP-100,2013-09-14 04:44:00,
2013-09-14 00:49:00,55.2,53.0,29.37,NW,315,0.0,0.0,91,0.00,,,0.00,Rainwise IP-100,2013-09-14 04:49:00,
2013-09-14 00:55:00,55.2,53.0,29.37,NNE,22,4.0,4.0,91,0.00,,,0.00,Rainwise IP-100,2013-09-14 04:55:00,
2013-09-14 01:00:00,55.2,53.0,29.37,WNW,292,0.0,4.0,90,0.00,,,0.00,Rainwise IP-100,2013-09-14 05:00:00,
2013-09-14 01:05:00,55.3,53.0,29.37,WNW,292,0.0,0.0,90,0.00,,,0.00,Rainwise IP-100,2013-09-14 05:05:00,
2013-09-14 01:10:00,55.2,53.0,29.38,SE,135,0.0,1.0,91,0.00,,,0.00,Rainwise IP-100,2013-09-14 05:10:00,
2013-09-14 01:15:00,55.3,53.0,29.38,NNW,337,0.0,0.0,91,0.00,,,0.00,Rainwise IP-100,2013-09-14 05:15:00,
2013-09-14 01:20:00,55.2,53.0,29.37,SE,135,1.2,1.2,91,0.00,,,0.00,Rainwise IP-100,2013-09-14 05:20:00,
2013-09-14 01:25:00,55.2,53.0,29.37,SE,135,0.0,1.0,91,0.00,,,0.00,Rainwise IP-100,2013-09-14 05:25:00,
2013-09-14 01:30:00,55.1,53.0,29.38,SE,135,0.0,0.0,91,0.00,,,0.00,Rainwise IP-100,2013-09-14 05:30:00,
2013-09-14 01:35:00,55.1,53.0,29.38,South,180,0.0,1.0,92,0.00,,,0.00,Rainwise IP-100,2013-09-14 05:35:00,
2013-09-14 01:40:00,55.0,53.0,29.38,South,180,0.0,1.0,92,0.00,,,0.00,Rainwise IP-100,2013-09-14 05:40:00,
2013-09-14 01:45:00,54.9,53.0,29.38,SSW,202,1.4,2.0,93,0.00,,,0.00,Rainwise IP-100,2013-09-14 05:45:00,
2013-09-14 01:50:00,54.8,53.0,29.38,SSW,202,0.0,1.0,93,0.00,,,0.00,Rainwise IP-100,2013-09-14 05:50:00,
2013-09-14 01:55:00,54.8,53.0,29.37,SSW,202,0.0,1.0,92,0.00,,,0.00,Rainwise IP-100,2013-09-14 05:55:00,
2013-09-14 02:00:00,55.0,53.0,29.38,NNW,337,0.0,4.0,91,0.00,,,0.00,Rainwise IP-100,2013-09-14 06:00:00,
2013-09-14 02:05:00,55.2,53.0,29.38,West,270,0.0,1.0,90,0.00,,,0.00,Rainwise IP-100,2013-09-14 06:05:00,
2013-09-14 02:11:00,55.2,53.0,29.38,WSW,247,2.6,2.6,90,0.00,,,0.00,Rainwise IP-100,2013-09-14 06:11:00,
2013-09-14 02:16:00,55.3,53.0,29.38,WSW,247,0.0,3.0,91,0.00,,,0.00,Rainwise IP-100,2013-09-14 06:16:00,
2013-09-14 02:21:00,55.3,53.0,29.39,WNW,292,0.0,1.0,91,0.00,,,0.00,Rainwise IP-100,2013-09-14 06:21:00,
2013-09-14 02:26:00,55.3,53.0,29.38,North,360,2.3,3.0,90,0.00,,,0.00,Rainwise IP-100,2013-09-14 06:26:00,
2013-09-14 02:31:00,55.4,52.0,29.38,NNE,22,1.2,3.0,89,0.00,,,0.00,Rainwise IP-100,2013-09-14 06:31:00,
2013-09-14 02:36:00,55.4,52.0,29.38,NNW,337,2.3,4.0,89,0.00,,,0.00,Rainwise IP-100,2013-09-14 06:36:00,
2013-09-14 02:41:00,55.4,52.0,29.39,NE,45,3.0,5.0,89,0.00,,,0.00,Rainwise IP-100,2013-09-14 06:41:00,
2013-09-14 02:46:00,55.4,52.0,29.39,NE,45,1.9,5.0,89,0.00,,,0.00,Rainwise IP-100,2013-09-14 06:46:00,
2013-09-14 02:51:00,55.4,52.0,29.39,North,360,3.3,4.0,88,0.00,,,0.00,Rainwise IP-100,2013-09-14 06:51:00,
2013-09-14 02:56:00,55.4,52.0,29.39,NNW,337,0.0,4.0,88,0.00,,,0.00,Rainwise IP-100,2013-09-14 06:56:00,
2013-09-14 03:01:00,55.3,52.0,29.39,NW,315,0.0,4.0,89,0.00,,,0.00,Rainwise IP-100,2013-09-14 07:01:00,
2013-09-14 03:06:00,55.4,52.0,29.39,ENE,67,3.7,4.0,88,0.00,,,0.00,Rainwise IP-100,2013-09-14 07:06:00,
2013-09-14 03:11:00,55.3,52.0,29.39,North,360,3.0,5.0,88,0.00,,,0.00,Rainwise IP-100,2013-09-14 07:11:00,
2013-09-14 03:16:00,55.3,52.0,29.39,NNW,337,0.0,6.0,88,0.00,,,0.00,Rainwise IP-100,2013-09-14 07:16:00,
2013-09-14 03:21:00,55.3,51.0,29.39,North,360,2.8,6.0,87,0.00,,,0.00,Rainwise IP-100,2013-09-14 07:21:00,
2013-09-14 03:27:00,55.3,51.0,29.40,NE,45,3.3,5.0,87,0.00,,,0.00,Rainwise IP-100,2013-09-14 07:27:00,
2013-09-14 03:32:00,55.3,51.0,29.40,North,360,1.2,4.0,87,0.00,,,0.00,Rainwise IP-100,2013-09-14 07:32:00,
2013-09-14 03:37:00,55.3,51.0,29.40,North,360,4.2,4.2,87,0.00,,,0.00,Rainwise IP-100,2013-09-14 07:37:00,
2013-09-14 03:42:00,55.2,51.0,29.40,WNW,292,1.6,6.0,86,0.00,,,0.00,Rainwise IP-100,2013-09-14 07:42:00,
2013-09-14 03:47:00,55.2,51.0,29.40,NNE,22,0.0,6.0,87,0.00,,,0.00,Rainwise IP-100,2013-09-14 07:47:00,
2013-09-14 03:52:00,55.1,51.0,29.39,NNW,337,1.2,5.0,87,0.00,,,0.00,Rainwise IP-100,2013-09-14 07:52:00,
2013-09-14 03:57:00,55.0,51.0,29.40,NNW,337,0.0,2.0,87,0.00,,,0.00,Rainwise IP-100,2013-09-14 07:57:00,
2013-09-14 04:02:00,54.9,52.0,29.40,ENE,67,1.2,1.2,88,0.00,,,0.00,Rainwise IP-100,2013-09-14 08:02:00,
2013-09-14 04:07:00,54.8,51.0,29.40,North,360,4.4,7.0,88,0.00,,,0.00,Rainwise IP-100,2013-09-14 08:07:00,
2013-09-14 04:12:00,54.9,51.0,29.40,NNW,337,4.4,4.4,87,0.00,,,0.00,Rainwise IP-100,2013-09-14 08:12:00,
2013-09-14 04:17:00,54.8,50.0,29.40,NNE,22,2.6,5.0,87,0.00,,,0.00,Rainwise IP-100,2013-09-14 08:17:00,
2013-09-14 04:22:00,54.8,50.0,29.40,NNE,22,2.6,4.0,87,0.00,,,0.00,Rainwise IP-100,2013-09-14 08:22:00,
2013-09-14 04:27:00,54.8,50.0,29.40,NNE,22,3.3,5.0,87,0.00,,,0.00,Rainwise IP-100,2013-09-14 08:27:00,
2013-09-14 04:32:00,54.7,50.0,29.40,NNW,337,1.6,6.0,86,0.00,,,0.00,Rainwise IP-100,2013-09-14 08:32:00,
2013-09-14 04:37:00,54.7,50.0,29.41,SSE,157,0.0,3.0,87,0.00,,,0.00,Rainwise IP-100,2013-09-14 08:37:00,
2013-09-14 04:43:00,54.7,50.0,29.41,NNE,22,1.2,6.0,87,0.00,,,0.00,Rainwise IP-100,2013-09-14 08:43:00,
2013-09-14 04:48:00,54.7,50.0,29.41,NNE,22,3.0,4.0,86,0.00,,,0.00,Rainwise IP-100,2013-09-14 08:48:00,
2013-09-14 04:53:00,54.6,50.0,29.41,NNW,337,5.1,5.1,87,0.00,,,0.00,Rainwise IP-100,2013-09-14 08:53:00,
2013-09-14 04:58:00,54.5,50.0,29.41,NNW,337,3.3,5.0,87,0.00,,,0.00,Rainwise IP-100,2013-09-14 08:58:00,
2013-09-14 05:03:00,54.5,50.0,29.41,North,360,0.0,4.0,86,0.00,,,0.00,Rainwise IP-100,2013-09-14 09:03:00,
2013-09-14 05:08:00,54.4,51.0,29.41,NNE,22,0.0,2.0,88,0.00,,,0.00,Rainwise IP-100,2013-09-14 09:08:00,
2013-09-14 05:13:00,54.2,50.0,29.41,NNW,337,0.0,1.0,88,0.00,,,0.00,Rainwise IP-100,2013-09-14 09:13:00,
2013-09-14 05:18:00,54.1,50.0,29.41,NNW,337,1.2,1.2,88,0.00,,,0.00,Rainwise IP-100,2013-09-14 09:18:00,
2013-09-14 05:23:00,53.9,50.0,29.41,NNW,337,0.0,1.0,88,0.00,,,0.00,Rainwise IP-100,2013-09-14 09:23:00,
2013-09-14 05:28:00,53.8,50.0,29.41,NNW,337,0.0,1.0,88,0.00,,,0.00,Rainwise IP-100,2013-09-14 09:28:00,
2013-09-14 05:33:00,53.6,50.0,29.41,NNW,337,0.0,0.0,89,0.00,,,0.00,Rainwise IP-100,2013-09-14 09:33:00,
2013-09-14 05:38:00,53.7,50.0,29.41,NNE,22,1.4,2.0,89,0.00,,,0.00,Rainwise IP-100,2013-09-14 09:38:00,
2013-09-14 05:43:00,53.8,50.0,29.41,NNW,337,0.0,6.0,89,0.00,,,0.00,Rainwise IP-100,2013-09-14 09:43:00,
2013-09-14 05:48:00,53.9,50.0,29.41,NNW,337,0.0,2.0,89,0.00,,,0.00,Rainwise IP-100,2013-09-14 09:48:00,
2013-09-14 05:53:00,53.9,50.0,29.42,NNE,22,3.5,6.0,88,0.00,,,0.00,Rainwise IP-100,2013-09-14 09:53:00,
2013-09-14 05:59:00,54.1,50.0,29.42,NNW,337,4.2,7.0,87,0.00,,,0.00,Rainwise IP-100,2013-09-14 09:59:00,
2013-09-14 06:04:00,54.2,50.0,29.41,North,360,4.2,4.2,87,0.00,,,0.00,Rainwise IP-100,2013-09-14 10:04:00,
2013-09-14 06:09:00,54.2,50.0,29.42,NNW,337,1.2,4.0,86,0.00,,,0.00,Rainwise IP-100,2013-09-14 10:09:00,
2013-09-14 06:14:00,54.1,50.0,29.42,NNW,337,0.0,2.0,86,0.00,,,0.00,Rainwise IP-100,2013-09-14 10:14:00,
2013-09-14 06:19:00,54.0,50.0,29.43,NNW,337,0.0,0.0,87,0.00,,,0.00,Rainwise IP-100,2013-09-14 10:19:00,
2013-09-14 06:24:00,54.0,50.0,29.43,NNW,337,0.0,4.0,87,0.00,,,0.00,Rainwise IP-100,2013-09-14 10:24:00,
2013-09-14 06:29:00,53.9,50.0,29.43,North,360,1.6,3.0,86,0.00,,,0.00,Rainwise IP-100,2013-09-14 10:29:00,
2013-09-14 06:34:00,53.8,50.0,29.43,North,360,1.2,3.0,87,0.00,,,0.00,Rainwise IP-100,2013-09-14 10:34:00,
2013-09-14 06:39:00,53.7,50.0,29.43,North,360,0.0,2.0,88,0.00,,,0.00,Rainwise IP-100,2013-09-14 10:39:00,
2013-09-14 06:44:00,53.6,50.0,29.43,NE,45,0.0,3.0,88,0.00,,,0.00,Rainwise IP-100,2013-09-14 10:44:00,
2013-09-14 06:49:00,53.6,50.0,29.44,NNE,22,0.0,2.0,89,0.00,,,0.00,Rainwise IP-100,2013-09-14 10:49:00,
2013-09-14 06:54:00,53.6,50.0,29.44,WNW,292,0.0,1.0,89,0.00,,,0.00,Rainwise IP-100,2013-09-14 10:54:00,
2013-09-14 06:59:00,53.6,50.0,29.44,NNW,337,0.0,1.0,88,0.00,,,0.00,Rainwise IP-100,2013-09-14 10:59:00,
2013-09-14 07:04:00,53.6,50.0,29.44,North,360,0.0,3.0,88,0.00,,,0.00,Rainwise IP-100,2013-09-14 11:04:00,
2013-09-14 07:09:00,53.7,50.0,29.45,NNW,337,2.1,4.0,87,0.00,,,0.00,Rainwise IP-100,2013-09-14 11:09:00,
2013-09-14 07:15:00,53.9,50.0,29.45,North,360,4.2,6.0,86,0.00,,,0.00,Rainwise IP-100,2013-09-14 11:15:00,
2013-09-14 07:20:00,54.0,50.0,29.45,NNE,22,0.0,7.0,86,0.00,,,0.00,Rainwise IP-100,2013-09-14 11:20:00,
2013-09-14 07:25:00,53.9,50.0,29.45,North,360,4.7,7.0,86,0.00,,,0.00,Rainwise IP-100,2013-09-14 11:25:00,
2013-09-14 07:30:00,54.0,50.0,29.45,North,360,2.8,5.0,86,0.00,,,0.00,Rainwise IP-100,2013-09-14 11:30:00,
2013-09-14 07:35:00,54.0,50.0,29.46,NNW,337,4.0,4.0,86,0.00,,,0.00,Rainwise IP-100,2013-09-14 11:35:00,
2013-09-14 07:40:00,54.1,50.0,29.46,ENE,67,1.9,6.0,86,0.00,,,0.00,Rainwise IP-100,2013-09-14 11:40:00,
2013-09-14 07:45:00,54.3,50.0,29.46,NE,45,1.2,5.0,86,0.00,,,0.00,Rainwise IP-100,2013-09-14 11:45:00,
2013-09-14 07:50:00,54.4,50.0,29.46,NNW,337,0.0,5.0,86,0.00,,,0.00,Rainwise IP-100,2013-09-14 11:50:00,
2013-09-14 07:55:00,54.5,50.0,29.46,NNW,337,4.9,5.0,86,0.00,,,0.00,Rainwise IP-100,2013-09-14 11:55:00,
2013-09-14 08:00:00,54.7,50.0,29.46,NNW,337,0.0,6.0,85,0.00,,,0.00,Rainwise IP-100,2013-09-14 12:00:00,
2013-09-14 08:05:00,54.8,50.0,29.47,NNE,22,2.3,7.0,84,0.00,,,0.00,Rainwise IP-100,2013-09-14 12:05:00,
2013-09-14 08:10:00,54.8,50.0,29.47,NNE,22,2.8,8.0,84,0.00,,,0.00,Rainwise IP-100,2013-09-14 12:10:00,
2013-09-14 08:15:00,54.8,50.0,29.47,North,360,5.6,8.0,84,0.00,,,0.00,Rainwise IP-100,2013-09-14 12:15:00,
2013-09-14 08:20:00,54.8,50.0,29.47,North,360,6.5,7.0,83,0.00,,,0.00,Rainwise IP-100,2013-09-14 12:20:00,
2013-09-14 08:25:00,54.9,50.0,29.47,North,360,10.5,11.0,83,0.00,,,0.00,Rainwise IP-100,2013-09-14 12:25:00,
2013-09-14 08:31:00,54.9,50.0,29.47,North,360,3.7,10.0,83,0.00,,,0.00,Rainwise IP-100,2013-09-14 12:31:00,
2013-09-14 08:36:00,54.9,50.0,29.47,NNE,22,7.2,7.2,82,0.00,,,0.00,Rainwise IP-100,2013-09-14 12:36:00,
2013-09-14 08:41:00,55.1,50.0,29.47,North,360,8.2,8.2,82,0.00,,,0.00,Rainwise IP-100,2013-09-14 12:41:00,
2013-09-14 08:46:00,55.3,50.0,29.47,NNE,22,6.1,10.0,82,0.00,,,0.00,Rainwise IP-100,2013-09-14 12:46:00,
2013-09-14 08:51:00,55.5,50.0,29.47,NNE,22,6.3,7.0,81,0.00,,,0.00,Rainwise IP-100,2013-09-14 12:51:00,
2013-09-14 08:56:00,55.5,50.0,29.48,NNE,22,5.4,6.0,81,0.00,,,0.00,Rainwise IP-100,2013-09-14 12:56:00,
2013-09-14 09:01:00,55.5,50.0,29.48,NNW,337,4.4,11.0,81,0.00,,,0.00,Rainwise IP-100,2013-09-14 13:01:00,
2013-09-14 09:06:00,55.8,50.0,29.48,ENE,67,2.1,7.0,81,0.00,,,0.00,Rainwise IP-100,2013-09-14 13:06:00,
2013-09-14 09:11:00,55.9,50.0,29.49,NNE,22,4.2,7.0,80,0.00,,,0.00,Rainwise IP-100,2013-09-14 13:11:00,
2013-09-14 09:16:00,55.9,50.0,29.49,NNE,22,9.3,10.0,80,0.00,,,0.00,Rainwise IP-100,2013-09-14 13:16:00,
2013-09-14 09:21:00,55.9,50.0,29.49,ENE,67,2.1,9.0,80,0.00,,,0.00,Rainwise IP-100,2013-09-14 13:21:00,
2013-09-14 09:26:00,56.0,50.0,29.49,NNW,337,6.1,10.0,80,0.00,,,0.00,Rainwise IP-100,2013-09-14 13:26:00,
2013-09-14 09:31:00,56.0,50.0,29.49,NE,45,3.7,8.0,80,0.00,,,0.00,Rainwise IP-100,2013-09-14 13:31:00,
2013-09-14 09:36:00,56.0,50.0,29.49,NNE,22,7.5,9.0,79,0.00,,,0.00,Rainwise IP-100,2013-09-14 13:36:00,
2013-09-14 09:41:00,56.1,50.0,29.49,North,360,7.0,7.0,79,0.00,,,0.00,Rainwise IP-100,2013-09-14 13:41:00,
2013-09-14 09:47:00,56.2,50.0,29.49,NNE,22,3.3,7.0,79,0.00,,,0.00,Rainwise IP-100,2013-09-14 13:47:00,
2013-09-14 09:52:00,56.4,50.0,29.49,NE,45,4.4,7.0,79,0.00,,,0.00,Rainwise IP-100,2013-09-14 13:52:00,
2013-09-14 09:57:00,56.6,50.0,29.49,North,360,7.5,10.0,78,0.00,,,0.00,Rainwise IP-100,2013-09-14 13:57:00,
2013-09-14 10:02:00,56.7,50.0,29.49,NNW,337,2.8,9.0,78,0.00,,,0.00,Rainwise IP-100,2013-09-14 14:02:00,
2013-09-14 10:07:00,56.8,49.0,29.50,North,360,2.6,9.0,77,0.00,,,0.00,Rainwise IP-100,2013-09-14 14:07:00,
2013-09-14 10:12:00,56.7,49.0,29.50,North,360,4.0,11.0,77,0.00,,,0.00,Rainwise IP-100,2013-09-14 14:12:00,
2013-09-14 10:17:00,56.6,49.0,29.50,NE,45,4.9,8.0,77,0.00,,,0.00,Rainwise IP-100,2013-09-14 14:17:00,
2013-09-14 10:22:00,56.6,49.0,29.49,North,360,12.1,12.1,77,0.00,,,0.00,Rainwise IP-100,2013-09-14 14:22:00,
2013-09-14 10:27:00,56.6,49.0,29.49,NNW,337,5.6,12.0,77,0.00,,,0.00,Rainwise IP-100,2013-09-14 14:27:00,
2013-09-14 10:32:00,56.7,49.0,29.49,NNE,22,10.3,10.3,77,0.00,,,0.00,Rainwise IP-100,2013-09-14 14:32:00,
2013-09-14 10:37:00,57.0,50.0,29.49,ENE,67,6.3,10.0,77,0.00,,,0.00,Rainwise IP-100,2013-09-14 14:37:00,
2013-09-14 10:42:00,57.3,50.0,29.49,NNE,22,8.4,9.0,76,0.00,,,0.00,Rainwise IP-100,2013-09-14 14:42:00,
2013-09-14 10:47:00,57.7,50.0,29.49,North,360,4.7,14.0,75,0.00,,,0.00,Rainwise IP-100,2013-09-14 14:47:00,
2013-09-14 10:52:00,58.0,50.0,29.49,NNE,22,15.6,15.6,75,0.00,,,0.00,Rainwise IP-100,2013-09-14 14:52:00,
2013-09-14 10:57:00,58.5,50.0,29.49,NNE,22,7.7,15.0,74,0.00,,,0.00,Rainwise IP-100,2013-09-14 14:57:00,
2013-09-14 11:03:00,59.0,50.0,29.49,NNE,22,10.3,12.0,74,0.00,,,0.00,Rainwise IP-100,2013-09-14 15:03:00,
2013-09-14 11:08:00,59.2,50.0,29.49,North,360,15.4,15.4,73,0.00,,,0.00,Rainwise IP-100,2013-09-14 15:08:00,
2013-09-14 11:13:00,59.2,50.0,29.49,NNE,22,7.0,15.0,72,0.00,,,0.00,Rainwise IP-100,2013-09-14 15:13:00,
2013-09-14 11:18:00,58.8,50.0,29.49,North,360,1.6,10.0,72,0.00,,,0.00,Rainwise IP-100,2013-09-14 15:18:00,
2013-09-14 11:23:00,58.4,49.0,29.49,NNE,22,10.5,18.0,72,0.00,,,0.00,Rainwise IP-100,2013-09-14 15:23:00,
2013-09-14 11:28:00,58.2,49.0,29.50,NE,45,4.9,10.0,72,0.00,,,0.00,Rainwise IP-100,2013-09-14 15:28:00,
2013-09-14 11:33:00,58.2,49.0,29.49,North,360,8.9,8.9,72,0.00,,,0.00,Rainwise IP-100,2013-09-14 15:33:00,
2013-09-14 11:38:00,58.4,50.0,29.49,NNW,337,4.4,10.0,73,0.00,,,0.00,Rainwise IP-100,2013-09-14 15:38:00,
2013-09-14 11:43:00,58.4,49.0,29.49,NNE,22,7.9,11.0,72,0.00,,,0.00,Rainwise IP-100,2013-09-14 15:43:00,
2013-09-14 11:48:00,58.2,49.0,29.49,West,270,6.3,14.0,72,0.00,,,0.00,Rainwise IP-100,2013-09-14 15:48:00,
2013-09-14 11:53:00,58.1,49.0,29.49,NNE,22,7.7,11.0,72,0.00,,,0.00,Rainwise IP-100,2013-09-14 15:53:00,
2013-09-14 11:58:00,58.1,49.0,29.50,NNE,22,6.8,15.0,72,0.00,,,0.00,Rainwise IP-100,2013-09-14 15:58:00,
2013-09-14 12:03:00,58.2,49.0,29.50,ENE,67,3.3,10.0,72,0.00,,,0.00,Rainwise IP-100,2013-09-14 16:03:00,
2013-09-14 12:08:00,58.4,49.0,29.49,NNE,22,6.3,9.0,71,0.00,,,0.00,Rainwise IP-100,2013-09-14 16:08:00,
2013-09-14 12:13:00,58.7,50.0,29.49,NNW,337,7.0,8.0,71,0.00,,,0.00,Rainwise IP-100,2013-09-14 16:13:00,
2013-09-14 12:19:00,59.0,49.0,29.49,NNE,22,7.9,12.0,70,0.00,,,0.00,Rainwise IP-100,2013-09-14 16:19:00,
2013-09-14 12:24:00,59.3,49.0,29.49,NE,45,5.4,11.0,70,0.00,,,0.00,Rainwise IP-100,2013-09-14 16:24:00,
2013-09-14 12:29:00,59.9,50.0,29.49,NNE,22,6.3,13.0,69,0.00,,,0.00,Rainwise IP-100,2013-09-14 16:29:00,
2013-09-14 12:34:00,60.5,50.0,29.49,North,360,7.5,13.0,68,0.00,,,0.00,Rainwise IP-100,2013-09-14 16:34:00,
2013-09-14 12:39:00,60.5,50.0,29.49,NE,45,5.1,14.0,68,0.00,,,0.00,Rainwise IP-100,2013-09-14 16:39:00,
2013-09-14 12:44:00,60.2,49.0,29.49,NNE,22,9.3,13.0,68,0.00,,,0.00,Rainwise IP-100,2013-09-14 16:44:00,
2013-09-14 12:49:00,59.9,50.0,29.50,ENE,67,6.5,12.0,69,0.00,,,0.00,Rainwise IP-100,2013-09-14 16:49:00,
2013-09-14 12:54:00,59.9,49.0,29.49,NNE,22,7.0,12.0,68,0.00,,,0.00,Rainwise IP-100,2013-09-14 16:54:00,
2013-09-14 12:59:00,60.3,49.0,29.49,NNW,337,4.4,10.0,67,0.00,,,0.00,Rainwise IP-100,2013-09-14 16:59:00,
2013-09-14 13:04:00,60.8,50.0,29.49,North,360,4.9,10.0,67,0.00,,,0.00,Rainwise IP-100,2013-09-14 17:04:00,
2013-09-14 13:09:00,60.9,50.0,29.49,NNE,22,10.5,12.0,66,0.00,,,0.00,Rainwise IP-100,2013-09-14 17:09:00,
2013-09-14 13:14:00,60.7,49.0,29.49,NNE,22,10.7,13.0,66,0.00,,,0.00,Rainwise IP-100,2013-09-14 17:14:00,
2013-09-14 13:19:00,60.5,49.0,29.49,NNW,337,7.7,14.0,66,0.00,,,0.00,Rainwise IP-100,2013-09-14 17:19:00,
2013-09-14 13:24:00,60.3,48.0,29.48,East,90,8.6,14.0,66,0.00,,,0.00,Rainwise IP-100,2013-09-14 17:24:00,
2013-09-14 13:29:00,60.0,48.0,29.48,ENE,67,5.1,12.0,66,0.00,,,0.00,Rainwise IP-100,2013-09-14 17:29:00,
2013-09-14 13:35:00,60.0,49.0,29.48,NNE,22,8.6,9.0,67,0.00,,,0.00,Rainwise IP-100,2013-09-14 17:35:00,
2013-09-14 13:40:00,60.1,49.0,29.49,SE,135,1.6,10.0,67,0.00,,,0.00,Rainwise IP-100,2013-09-14 17:40:00,
2013-09-14 13:45:00,60.2,49.0,29.49,NE,45,3.3,5.0,67,0.00,,,0.00,Rainwise IP-100,2013-09-14 17:45:00,
2013-09-14 13:50:00,60.1,49.0,29.49,NE,45,4.7,8.0,68,0.00,,,0.00,Rainwise IP-100,2013-09-14 17:50:00,
2013-09-14 13:55:00,59.9,49.0,29.49,NNE,22,5.4,11.0,68,0.00,,,0.00,Rainwise IP-100,2013-09-14 17:55:00,
2013-09-14 14:00:00,59.8,49.0,29.49,NNE,22,4.9,10.0,68,0.00,,,0.00,Rainwise IP-100,2013-09-14 18:00:00,
2013-09-14 14:05:00,59.7,49.0,29.49,North,360,3.7,9.0,68,0.00,,,0.00,Rainwise IP-100,2013-09-14 18:05:00,
2013-09-14 14:10:00,59.7,49.0,29.49,NNE,22,1.9,6.0,68,0.00,,,0.00,Rainwise IP-100,2013-09-14 18:10:00,
2013-09-14 14:15:00,59.8,49.0,29.49,ENE,67,1.9,5.0,69,0.00,,,0.00,Rainwise IP-100,2013-09-14 18:15:00,
2013-09-14 14:20:00,59.9,50.0,29.49,NE,45,3.7,6.0,69,0.00,,,0.00,Rainwise IP-100,2013-09-14 18:20:00,
2013-09-14 14:25:00,59.9,50.0,29.49,WNW,292,0.0,6.0,69,0.00,,,0.00,Rainwise IP-100,2013-09-14 18:25:00,
2013-09-14 14:30:00,59.7,49.0,29.49,NE,45,2.6,9.0,69,0.00,,,0.00,Rainwise IP-100,2013-09-14 18:30:00,
2013-09-14 14:35:00,59.5,49.0,29.49,SSW,202,3.3,9.0,69,0.00,,,0.00,Rainwise IP-100,2013-09-14 18:35:00,
2013-09-14 14:40:00,59.6,49.0,29.49,NNE,22,6.8,6.8,69,0.00,,,0.00,Rainwise IP-100,2013-09-14 18:40:00,
2013-09-14 14:45:00,59.6,50.0,29.50,SE,135,4.0,8.0,70,0.00,,,0.00,Rainwise IP-100,2013-09-14 18:45:00,
2013-09-14 14:51:00,59.5,49.0,29.49,NNE,22,3.5,6.0,69,0.00,,,0.00,Rainwise IP-100,2013-09-14 18:51:00,
2013-09-14 14:56:00,59.5,49.0,29.50,NNW,337,3.5,5.0,69,0.00,,,0.00,Rainwise IP-100,2013-09-14 18:56:00,
2013-09-14 15:01:00,59.5,50.0,29.50,NNE,22,6.3,6.3,70,0.00,,,0.00,Rainwise IP-100,2013-09-14 19:01:00,
2013-09-14 15:06:00,59.6,49.0,29.49,NNW,337,7.9,11.0,69,0.00,,,0.00,Rainwise IP-100,2013-09-14 19:06:00,
2013-09-14 15:11:00,59.5,49.0,29.49,NNE,22,6.3,12.0,68,0.00,,,0.00,Rainwise IP-100,2013-09-14 19:11:00,
2013-09-14 15:16:00,59.5,48.0,29.50,NNW,337,1.9,8.0,67,0.00,,,0.00,Rainwise IP-100,2013-09-14 19:16:00,
2013-09-14 15:21:00,59.8,48.0,29.49,WNW,292,1.4,8.0,67,0.00,,,0.00,Rainwise IP-100,2013-09-14 19:21:00,
2013-09-14 15:26:00,60.4,50.0,29.49,NNW,337,4.0,5.0,67,0.00,,,0.00,Rainwise IP-100,2013-09-14 19:26:00,
2013-09-14 15:31:00,61.0,50.0,29.50,NNE,22,2.3,5.0,67,0.00,,,0.00,Rainwise IP-100,2013-09-14 19:31:00,
2013-09-14 15:36:00,61.4,50.0,29.49,NNE,22,3.5,6.0,65,0.00,,,0.00,Rainwise IP-100,2013-09-14 19:36:00,
2013-09-14 15:41:00,61.4,49.0,29.49,NNE,22,1.4,4.0,64,0.00,,,0.00,Rainwise IP-100,2013-09-14 19:41:00,
2013-09-14 15:46:00,61.3,48.0,29.49,NNE,22,5.8,7.0,63,0.00,,,0.00,Rainwise IP-100,2013-09-14 19:46:00,
2013-09-14 15:51:00,61.1,48.0,29.49,NNE,22,2.8,6.0,63,0.00,,,0.00,Rainwise IP-100,2013-09-14 19:51:00,
2013-09-14 15:56:00,61.2,48.0,29.49,ENE,67,1.9,4.0,63,0.00,,,0.00,Rainwise IP-100,2013-09-14 19:56:00,
2013-09-14 16:01:00,61.5,49.0,29.50,ESE,112,0.0,2.0,64,0.00,,,0.00,Rainwise IP-100,2013-09-14 20:01:00,
2013-09-14 16:07:00,61.8,50.0,29.50,NNW,337,0.0,2.0,65,0.00,,,0.00,Rainwise IP-100,2013-09-14 20:07:00,
2013-09-14 16:12:00,61.7,50.0,29.50,ENE,67,0.0,4.0,65,0.00,,,0.00,Rainwise IP-100,2013-09-14 20:12:00,
2013-09-14 16:17:00,61.1,49.0,29.50,ENE,67,3.5,8.0,65,0.00,,,0.00,Rainwise IP-100,2013-09-14 20:17:00,
2013-09-14 16:22:00,60.5,49.0,29.50,NE,45,4.0,6.0,66,0.00,,,0.00,Rainwise IP-100,2013-09-14 20:22:00,
2013-09-14 16:27:00,60.2,49.0,29.51,NE,45,3.3,7.0,67,0.00,,,0.00,Rainwise IP-100,2013-09-14 20:27:00,
2013-09-14 16:32:00,60.1,49.0,29.51,NE,45,3.7,6.0,68,0.00,,,0.00,Rainwise IP-100,2013-09-14 20:32:00,
2013-09-14 16:37:00,59.9,50.0,29.51,NNE,22,2.8,9.0,69,0.00,,,0.00,Rainwise IP-100,2013-09-14 20:37:00,
2013-09-14 16:42:00,59.8,49.0,29.52,NNE,22,2.3,6.0,69,0.00,,,0.00,Rainwise IP-100,2013-09-14 20:42:00,
2013-09-14 16:47:00,59.6,50.0,29.51,ENE,67,5.8,8.0,70,0.00,,,0.00,Rainwise IP-100,2013-09-14 20:47:00,
2013-09-14 16:52:00,59.2,50.0,29.52,NNE,22,3.7,7.0,71,0.00,,,0.00,Rainwise IP-100,2013-09-14 20:52:00,
2013-09-14 16:57:00,59.1,50.0,29.52,ENE,67,4.0,7.0,71,0.00,,,0.00,Rainwise IP-100,2013-09-14 20:57:00,
2013-09-14 17:02:00,59.1,50.0,29.53,NE,45,2.6,5.0,71,0.00,,,0.00,Rainwise IP-100,2013-09-14 21:02:00,
2013-09-14 17:07:00,59.1,50.0,29.52,NNE,22,2.8,4.0,72,0.00,,,0.00,Rainwise IP-100,2013-09-14 21:07:00,
2013-09-14 17:12:00,59.1,50.0,29.52,ENE,67,2.1,4.0,71,0.00,,,0.00,Rainwise IP-100,2013-09-14 21:12:00,
2013-09-14 17:17:00,59.0,50.0,29.52,NE,45,1.9,4.0,72,0.00,,,0.00,Rainwise IP-100,2013-09-14 21:17:00,
2013-09-14 17:23:00,58.9,50.0,29.53,ESE,112,0.0,4.0,73,0.00,,,0.00,Rainwise IP-100,2013-09-14 21:23:00,
2013-09-14 17:28:00,58.9,50.0,29.53,NNE,22,1.4,3.0,74,0.00,,,0.00,Rainwise IP-100,2013-09-14 21:28:00,
2013-09-14 17:33:00,58.8,50.0,29.53,NNE,22,2.1,5.0,74,0.00,,,0.00,Rainwise IP-100,2013-09-14 21:33:00,
2013-09-14 17:38:00,58.6,50.0,29.54,NNE,22,2.8,4.0,74,0.00,,,0.00,Rainwise IP-100,2013-09-14 21:38:00,
2013-09-14 17:43:00,58.5,50.0,29.54,ENE,67,1.4,4.0,74,0.00,,,0.00,Rainwise IP-100,2013-09-14 21:43:00,
2013-09-14 17:48:00,58.4,50.0,29.54,North,360,2.8,3.0,74,0.00,,,0.00,Rainwise IP-100,2013-09-14 21:48:00,
2013-09-14 17:53:00,58.4,50.0,29.54,NNW,337,0.0,2.0,75,0.00,,,0.00,Rainwise IP-100,2013-09-14 21:53:00,
2013-09-14 17:58:00,58.2,50.0,29.54,NNW,337,0.0,2.0,76,0.00,,,0.00,Rainwise IP-100,2013-09-14 21:58:00,
2013-09-14 18:03:00,58.1,51.0,29.54,NNW,337,0.0,0.0,77,0.00,,,0.00,Rainwise IP-100,2013-09-14 22:03:00,
2013-09-14 18:08:00,57.9,51.0,29.54,NNW,337,0.0,0.0,78,0.00,,,0.00,Rainwise IP-100,2013-09-14 22:08:00,
2013-09-14 18:13:00,57.6,51.0,29.54,NNW,337,1.6,2.0,79,0.00,,,0.00,Rainwise IP-100,2013-09-14 22:13:00,
2013-09-14 18:18:00,57.5,51.0,29.55,NNW,337,0.0,1.0,80,0.00,,,0.00,Rainwise IP-100,2013-09-14 22:18:00,
2013-09-14 18:23:00,57.4,52.0,29.55,NNW,337,0.0,0.0,81,0.00,,,0.00,Rainwise IP-100,2013-09-14 22:23:00,
2013-09-14 18:28:00,57.3,52.0,29.55,NNW,337,0.0,0.0,82,0.00,,,0.00,Rainwise IP-100,2013-09-14 22:28:00,
2013-09-14 18:33:00,57.3,52.0,29.55,NNW,337,0.0,0.0,82,0.00,,,0.00,Rainwise IP-100,2013-09-14 22:33:00,
2013-09-14 18:39:00,57.0,52.0,29.55,NNW,337,0.0,0.0,83,0.00,,,0.00,Rainwise IP-100,2013-09-14 22:39:00,
2013-09-14 18:44:00,56.6,52.0,29.55,NNW,337,0.0,0.0,84,0.00,,,0.00,Rainwise IP-100,2013-09-14 22:44:00,
2013-09-14 18:49:00,56.5,52.0,29.56,NNW,337,0.0,0.0,84,0.00,,,0.00,Rainwise IP-100,2013-09-14 22:49:00,
2013-09-14 18:54:00,56.4,52.0,29.56,NNW,337,0.0,0.0,84,0.00,,,0.00,Rainwise IP-100,2013-09-14 22:54:00,
2013-09-14 18:59:00,56.3,52.0,29.56,NNW,337,0.0,0.0,86,0.00,,,0.00,Rainwise IP-100,2013-09-14 22:59:00,
2013-09-14 19:04:00,56.2,52.0,29.56,NNW,337,0.0,0.0,86,0.00,,,0.00,Rainwise IP-100,2013-09-14 23:04:00,
2013-09-14 19:09:00,56.1,52.0,29.56,NNW,337,0.0,0.0,87,0.00,,,0.00,Rainwise IP-100,2013-09-14 23:09:00,
2013-09-14 19:14:00,56.1,52.0,29.56,NNW,337,0.0,0.0,87,0.00,,,0.00,Rainwise IP-100,2013-09-14 23:14:00,
2013-09-14 19:19:00,56.0,53.0,29.56,NNW,337,0.0,0.0,88,0.00,,,0.00,Rainwise IP-100,2013-09-14 23:19:00,
2013-09-14 19:24:00,55.9,53.0,29.56,NNW,337,0.0,0.0,89,0.00,,,0.00,Rainwise IP-100,2013-09-14 23:24:00,
2013-09-14 19:29:00,56.0,53.0,29.57,NNW,337,0.0,1.0,88,0.00,,,0.00,Rainwise IP-100,2013-09-14 23:29:00,
2013-09-14 19:34:00,56.2,53.0,29.57,NNW,337,0.0,0.0,88,0.00,,,0.00,Rainwise IP-100,2013-09-14 23:34:00,
2013-09-14 19:39:00,56.2,53.0,29.57,NNW,337,0.0,0.0,88,0.00,,,0.00,Rainwise IP-100,2013-09-14 23:39:00,
2013-09-14 19:44:00,55.9,53.0,29.57,NNW,337,0.0,0.0,89,0.00,,,0.00,Rainwise IP-100,2013-09-14 23:44:00,
2013-09-14 19:49:00,55.8,53.0,29.57,NNW,337,0.0,0.0,88,0.00,,,0.00,Rainwise IP-100,2013-09-14 23:49:00,
2013-09-14 19:55:00,55.7,53.0,29.57,NNW,337,0.0,0.0,89,0.00,,,0.00,Rainwise IP-100,2013-09-14 23:55:00,
2013-09-14 20:00:00,55.6,53.0,29.58,NNW,337,0.0,0.0,89,0.00,,,0.00,Rainwise IP-100,2013-09-15 00:00:00,
2013-09-14 20:05:00,55.6,53.0,29.58,NNW,337,0.0,0.0,89,0.00,,,0.00,Rainwise IP-100,2013-09-15 00:05:00,
2013-09-14 20:10:00,55.5,53.0,29.58,NNW,337,0.0,0.0,89,0.00,,,0.00,Rainwise IP-100,2013-09-15 00:10:00,
2013-09-14 20:15:00,55.5,53.0,29.58,NNW,337,1.2,2.0,90,0.00,,,0.00,Rainwise IP-100,2013-09-15 00:15:00,
2013-09-14 20:20:00,55.5,53.0,29.58,NNW,337,0.0,1.0,90,0.00,,,0.00,Rainwise IP-100,2013-09-15 00:20:00,
2013-09-14 20:25:00,55.5,53.0,29.59,NNW,337,0.0,1.0,90,0.00,,,0.00,Rainwise IP-100,2013-09-15 00:25:00,
2013-09-14 20:30:00,55.3,53.0,29.59,NNW,337,0.0,1.0,91,0.00,,,0.00,Rainwise IP-100,2013-09-15 00:30:00,
2013-09-14 20:35:00,55.2,53.0,29.59,NNW,337,1.2,2.0,91,0.00,,,0.00,Rainwise IP-100,2013-09-15 00:35:00,
2013-09-14 20:40:00,55.1,53.0,29.59,NNW,337,0.0,2.0,92,0.00,,,0.00,Rainwise IP-100,2013-09-15 00:40:00,
2013-09-14 20:45:00,55.0,53.0,29.59,NNW,337,0.0,0.0,92,0.00,,,0.00,Rainwise IP-100,2013-09-15 00:45:00,
2013-09-14 20:50:00,54.7,53.0,29.59,NNW,337,0.0,0.0,92,0.00,,,0.00,Rainwise IP-100,2013-09-15 00:50:00,
2013-09-14 20:55:00,54.4,53.0,29.59,NNW,337,0.0,0.0,93,0.00,,,0.00,Rainwise IP-100,2013-09-15 00:55:00,
2013-09-14 21:00:00,54.2,52.0,29.59,NNW,337,0.0,0.0,94,0.00,,,0.00,Rainwise IP-100,2013-09-15 01:00:00,
2013-09-14 21:05:00,54.1,52.0,29.59,NNW,337,0.0,1.0,94,0.00,,,0.00,Rainwise IP-100,2013-09-15 01:05:00,
2013-09-14 21:11:00,53.8,52.0,29.59,NNW,337,0.0,1.0,95,0.00,,,0.00,Rainwise IP-100,2013-09-15 01:11:00,
2013-09-14 21:16:00,53.6,52.0,29.60,NNW,337,0.0,0.0,95,0.00,,,0.00,Rainwise IP-100,2013-09-15 01:16:00,
2013-09-14 21:21:00,53.5,52.0,29.60,NNW,337,0.0,1.0,95,0.00,,,0.00,Rainwise IP-100,2013-09-15 01:21:00,
2013-09-14 21:26:00,53.5,52.0,29.59,NNW,337,0.0,0.0,95,0.00,,,0.00,Rainwise IP-100,2013-09-15 01:26:00,
2013-09-14 21:31:00,53.4,52.0,29.60,NNW,337,0.0,0.0,96,0.00,,,0.00,Rainwise IP-100,2013-09-15 01:31:00,
2013-09-14 21:36:00,53.3,51.0,29.60,NNW,337,0.0,0.0,96,0.00,,,0.00,Rainwise IP-100,2013-09-15 01:36:00,
2013-09-14 21:41:00,53.2,51.0,29.60,NNW,337,0.0,0.0,96,0.00,,,0.00,Rainwise IP-100,2013-09-15 01:41:00,
2013-09-14 21:46:00,53.2,51.0,29.60,NNW,337,1.6,2.0,96,0.00,,,0.00,Rainwise IP-100,2013-09-15 01:46:00,
2013-09-14 21:51:00,53.2,51.0,29.60,NNW,337,0.0,1.0,96,0.00,,,0.00,Rainwise IP-100,2013-09-15 01:51:00,
2013-09-14 21:56:00,53.1,51.0,29.60,NNW,337,2.1,2.1,96,0.00,,,0.00,Rainwise IP-100,2013-09-15 01:56:00,
2013-09-14 22:01:00,53.0,51.0,29.61,NNW,337,0.0,2.0,96,0.00,,,0.00,Rainwise IP-100,2013-09-15 02:01:00,
2013-09-14 22:06:00,52.8,51.0,29.61,NNW,337,0.0,2.0,96,0.00,,,0.00,Rainwise IP-100,2013-09-15 02:06:00,
2013-09-14 22:11:00,52.6,51.0,29.61,NNW,337,0.0,1.0,96,0.00,,,0.00,Rainwise IP-100,2013-09-15 02:11:00,
2013-09-14 22:16:00,52.4,50.0,29.61,NNW,337,2.1,4.0,96,0.00,,,0.00,Rainwise IP-100,2013-09-15 02:16:00,
2013-09-14 22:21:00,52.2,51.0,29.61,NNW,337,1.6,4.0,97,0.00,,,0.00,Rainwise IP-100,2013-09-15 02:21:00,
2013-09-14 22:27:00,52.0,51.0,29.61,NNW,337,2.6,2.6,97,0.00,,,0.00,Rainwise IP-100,2013-09-15 02:27:00,
2013-09-14 22:32:00,51.9,51.0,29.61,NNW,337,2.1,3.0,97,0.00,,,0.00,Rainwise IP-100,2013-09-15 02:32:00,
2013-09-14 22:37:00,51.8,51.0,29.61,NNW,337,2.3,3.0,97,0.00,,,0.00,Rainwise IP-100,2013-09-15 02:37:00,
2013-09-14 22:42:00,51.7,51.0,29.61,NNW,337,0.0,3.0,97,0.00,,,0.00,Rainwise IP-100,2013-09-15 02:42:00,
2013-09-14 22:47:00,51.5,51.0,29.61,NNW,337,0.0,0.0,97,0.00,,,0.00,Rainwise IP-100,2013-09-15 02:47:00,
2013-09-14 22:52:00,51.2,50.0,29.61,NNW,337,0.0,0.0,97,0.00,,,0.00,Rainwise IP-100,2013-09-15 02:52:00,
2013-09-14 22:57:00,50.8,50.0,29.61,NNW,337,0.0,1.0,97,0.00,,,0.00,Rainwise IP-100,2013-09-15 02:57:00,
2013-09-14 23:02:00,50.5,50.0,29.61,NNW,337,1.2,2.0,97,0.00,,,0.00,Rainwise IP-100,2013-09-15 03:02:00,
2013-09-14 23:07:00,50.5,50.0,29.62,NNW,337,2.1,2.1,98,0.00,,,0.00,Rainwise IP-100,2013-09-15 03:07:00,
2013-09-14 23:12:00,50.7,50.0,29.61,NNW,337,1.2,2.0,98,0.00,,,0.00,Rainwise IP-100,2013-09-15 03:12:00,
2013-09-14 23:17:00,50.5,50.0,29.61,NNW,337,0.0,1.0,97,0.00,,,0.00,Rainwise IP-100,2013-09-15 03:17:00,
2013-09-14 23:22:00,50.3,49.0,29.61,NNW,337,0.0,1.0,97,0.00,,,0.00,Rainwise IP-100,2013-09-15 03:22:00,
2013-09-14 23:27:00,50.0,49.0,29.61,NW,315,2.3,3.0,97,0.00,,,0.00,Rainwise IP-100,2013-09-15 03:27:00,
2013-09-14 23:32:00,49.9,49.0,29.62,NW,315,1.9,4.0,97,0.00,,,0.00,Rainwise IP-100,2013-09-15 03:32:00,
2013-09-14 23:37:00,49.8,49.0,29.62,NW,315,2.6,3.0,97,0.00,,,0.00,Rainwise IP-100,2013-09-15 03:37:00,
2013-09-14 23:43:00,49.6,49.0,29.62,NW,315,1.2,3.0,97,0.00,,,0.00,Rainwise IP-100,2013-09-15 03:43:00,
2013-09-14 23:48:00,49.4,48.0,29.62,NW,315,0.0,3.0,97,0.00,,,0.00,Rainwise IP-100,2013-09-15 03:48:00,
2013-09-14 23:53:00,49.2,48.0,29.62,NW,315,1.4,2.0,97,0.00,,,0.00,Rainwise IP-100,2013-09-15 03:53:00,
2013-09-14 23:58:00,49.1,48.0,29.62,NNW,337,3.3,3.3,97,0.00,,,0.00,Rainwise IP-100,2013-09-15 03:58:00,